Tenerife > ESTACION METEOROLÓGICA Aeropuerto Sur

DATOS ACTUALES Online

Ultima actulizacion 1 h 14 minutos

21.6 ºC

Temperatura

92

Humedad (%)

1015.2

Presión (mb)

23.5

Precipitación (mm)

6.7 NO

Viento (Km/h)

DATOS DIARIOS

Temperatura últimas 24 horas (ºC)

Humedad últimas 24 horas (%)

Presión atmosférica últimas 24 horas (mb)

Precipitaciones últimas 23 horas (mm)

Viento últimas 24 horas (Km/h)

Hora Temperatura (°C) ºC Precipitación (mm) mm Presión (mb) mb Humedad (%) % Viento (Km/h) km/h
24 - 23:00 23.9 0 1017 69 8.7 NO
25 - 00:00 23.7 0 1018 73 8.9 O
25 - 01:00 23.6 0 1018 74 8.1 O
25 - 02:00 23.2 0 1017 79 8 O
25 - 03:00 22.5 0.1 1017 84 6.2 NO
25 - 04:00 21.9 0.7 1017 86 5.7 NO
25 - 05:00 21.6 1.8 1016 87 5 NO
25 - 06:00 21.4 2.4 1016 86 4.4 NO
25 - 07:00 21 3.2 1017 84 2.9 N
25 - 08:00 21 5.4 1016 85 8.2 NO
25 - 09:00 20.8 7.1 1016 85 8.4 NO
25 - 10:00 20.8 9 1017 89 7.8 NO
25 - 11:00 21.3 10.9 1018 90 4.6 NO
25 - 12:00 21.4 13.1 1018 92 5 NO
25 - 13:00 21.5 15.5 1018 93 7.2 O
25 - 14:00 21.1 17.5 1017 91 6.5 NO
25 - 15:00 21.6 18 1016 91 6.2 O
25 - 16:00 21.9 18.2 1015 89 9.2 NO
25 - 17:00 22.1 18.8 1015 91 8.2 NO
25 - 18:00 22.1 19.9 1015 91 6.8 NO
25 - 19:00 21.9 21.1 1016 92 6.1 NO
25 - 20:00 21.8 22.6 1015 93 6.5 NO
25 - 21:00 21.4 23 1015 93 6.9 NO
25 - 22:00 21.6 23.5 1015 92 6.7 NO
25 - 23:00
Apalmet utiliza cookies propias y de terceros para mejorar la usabilidad y la experiencia web. Política de cookies.